Location: Allonne
(49.4086°N, 2.1143°E)
Time: 09:17:25
(UTC+00:00)

DMSP B5D2-2 - Pass Details

Date: 07 August 2024
Orbit: 787 x 802 km, 98.3° (Epoch: 08 September)

Event Time Altitude Azimuth Distance (km) Brightness Sun altitude
Rises 02:49:33 0° 147° (SSE) 3,278 7.1 -14.1°
Reaches altitude 10° 02:51:55 10° 143° (SE) 2,351 6.4 -13.8°
Maximum altitude 02:56:55 51° 69° (ENE) 993 5.0 -13.3°
Drops below altitude 10° 03:01:56 10° 354° (N) 2,361 7.1 -12.7°
Sets 03:04:19 0° 350° (N) 3,294 7.8 -12.4°
